Location: Colorado Springs
(38.8340°N, 104.8210°W)
Time: 20:47:27
(UTC-07:00)

Vanguard 3 - Visible Passes

Search period start: 18 February 2018 00:00
Search period end: 28 February 2018 00:00
Orbit: 508 x 3264 km, 33.3° (Epoch: 18 February)

Date Brightness Start Highest point End Pass type
(mag) Time Alt. Az. Time Alt. Az. Time Alt. Az.
18 Feb 8.1 19:54:47 10° WSW 19:57:51 28° SSW 19:57:51 28° SSW visible
19 Feb 7.6 18:41:39 10° WSW 18:45:00 33° S 18:48:20 13° SE visible
20 Feb 8.3 19:39:46 10° WSW 19:42:50 22° SSW 19:43:26 21° S visible
21 Feb 7.8 18:26:21 10° WSW 18:29:34 28° S 18:33:10 10° SE visible
22 Feb 8.6 19:24:51 10° WSW 19:27:21 17° SSW 19:29:08 14° SSE visible
23 Feb 8.1 18:11:02 10° WSW 18:14:07 24° SSW 18:17:18 10° SE visible
24 Feb 8.9 19:10:11 10° SW 19:11:50 12° SSW 19:13:35 10° S visible
